Погода в Кузино

Россия / Вологодская область     60°44′06″N   46°22′26″E
темп.,
°C
ветер,
м/с
пор.,
м/с
влажн.,
%
обл.,
%
осадки,
мм/ч
давл.,
гПа
погр.,
м
14 апреля, ср
ср1400:00+8ююз3119667 0.0 1024334
03:00+7ю31197100 0.0 1023246
06:00+8ююз3109386 0.0 1022265
09:00+13ююз412715 0.0 1021413
12:00+17ююз6135956 0.0 10191004
15:00+18ююз6135750 0.0 10181284
18:00+14ююз6146569 0.0 1017774
21:00+12ююз51575100 0.0 1017575
15 апреля, чт
чт1500:00+10юз41385100 0.0 1017496
03:00+6ссз4890100 0.3 1020596
06:00+3с3895100 1.9 1022509
09:00+7с456282 2.1 10231240
12:00+8ссз454982 0.0 10251573
15:00+8с464381 0.0 10261482
18:00+6с47505 0.0 1028793
21:00+2с28730 0.0 1030191
16 апреля, пт
пт1600:000ссв27780 0.0 1031151
03:00−1ссв25805 0.0 1032123
06:000св12725 0.0 1033100
09:00+5зсз11485 0.0 1033758
12:00+8сз23385 0.0 10321194
15:00+9сз34365 0.0 10311369
18:00+7ссз25470 0.0 1031163
21:00+3сз23680 0.0 103144
17 апреля, сб
сб1700:00+2сз27815 0.0 1032117
03:00+1сз268940 0.0 1032117
06:00+2сз39845 0.0 1033320
09:00+6ссз47595 0.0 10321023
12:00+9ссз574299 0.0 10321332
15:00+10ссз474359 0.0 10321391
18:00+8ссз47525 0.0 1031910
21:00+4сз297611 0.0 1032226
18 апреля, вс
вс1800:00+5сз3107497 0.0 1031399
03:00+2ссз28925 0.1 1032214
06:00+2ссз289033 0.0 1034407
09:00+4ссв3572100 0.0 1034770
12:00+5с3560100 0.0 10351328
15:00+6ссз345499 0.0 10351273
18:00+6ссз245739 0.0 1035238
21:00+2с22765 0.0 103629